�������l�o���
Date,Time,MP-1(��Sv/h),MP-2(��Sv/h),MP-3(��Sv/h),MP-4(��Sv/h),MP-5(��Sv/h),MP-6(��Sv/h),MP-7(��Sv/h),MP-8(��Sv/h),����,����(m/s),���J
2022/05/20,00:00,0.579,0.850,0.548,1.022,0.733,0.347,0.599,0.563,��쐼,1.7,��
2022/05/20,00:10,0.577,0.851,0.548,1.025,0.731,0.347,0.598,0.563,��,1.2,��
2022/05/20,00:20,0.578,0.850,0.547,1.024,0.730,0.348,0.597,0.563,��,2.3,��
2022/05/20,00:30,0.577,0.849,0.550,1.025,0.731,0.347,0.596,0.564,��쓌,2.0,��
2022/05/20,00:40,0.579,0.849,0.547,1.024,0.731,0.349,0.598,0.563,��쓌,1.5,��
2022/05/20,00:50,0.581,0.851,0.549,1.022,0.732,0.347,0.600,0.563,��,1.2,��
2022/05/20,01:00,0.579,0.851,0.549,1.023,0.732,0.348,0.597,0.562,��쐼,1.7,��
2022/05/20,01:10,0.579,0.849,0.549,1.025,0.731,0.348,0.597,0.563,��쐼,2.0,��
2022/05/20,01:20,0.580,0.850,0.549,1.025,0.732,0.348,0.596,0.563,��쐼,1.7,��
2022/05/20,01:30,0.577,0.849,0.547,1.024,0.730,0.348,0.597,0.564,��,3.5,��
2022/05/20,01:40,0.579,0.849,0.549,1.022,0.731,0.347,0.600,0.564,��쐼,3.0,��
2022/05/20,01:50,0.579,0.849,0.548,1.024,0.732,0.348,0.597,0.563,�쐼,3.9,��
2022/05/20,02:00,0.578,0.851,0.547,1.023,0.730,0.349,0.597,0.564,�쐼,3.8,��
2022/05/20,02:10,0.577,0.851,0.548,1.021,0.730,0.348,0.596,0.563,���쐼,2.6,��
2022/05/20,02:20,0.576,0.849,0.548,1.022,0.732,0.348,0.596,0.564,��쐼,1.7,��
2022/05/20,02:30,0.578,0.848,0.548,1.024,0.731,0.348,0.597,0.563,��쐼,1.9,��
2022/05/20,02:40,0.580,0.847,0.549,1.025,0.731,0.347,0.597,0.564,��쐼,1.7,��
2022/05/20,02:50,0.579,0.849,0.548,1.024,0.732,0.349,0.596,0.565,��쐼,1.5,��
2022/05/20,03:00,0.579,0.847,0.547,1.022,0.730,0.348,0.597,0.564,��쐼,1.4,��
2022/05/20,03:10,0.579,0.848,0.549,1.022,0.731,0.348,0.595,0.563,��쐼,1.5,��
2022/05/20,03:20,0.580,0.849,0.548,1.023,0.732,0.347,0.596,0.564,��쐼,1.1,��
2022/05/20,03:30,0.578,0.848,0.548,1.025,0.732,0.348,0.597,0.563,-,CALM,��
2022/05/20,03:40,0.579,0.849,0.547,1.024,0.729,0.348,0.597,0.563,���쐼,1.7,��
2022/05/20,03:50,0.578,0.848,0.548,1.024,0.732,0.349,0.597,0.562,���쐼,3.2,��
2022/05/20,04:00,0.577,0.849,0.549,1.025,0.732,0.348,0.596,0.562,���쐼,2.9,��
2022/05/20,04:10,0.578,0.850,0.549,1.025,0.732,0.348,0.597,0.563,���쐼,3.0,��
2022/05/20,04:20,0.578,0.850,0.547,1.023,0.731,0.347,0.597,0.563,���k��,2.8,��
2022/05/20,04:30,0.577,0.849,0.548,1.024,0.732,0.349,0.598,0.563,�k��,1.7,��
2022/05/20,04:40,0.578,0.850,0.547,1.024,0.732,0.347,0.596,0.564,���쐼,2.0,��
2022/05/20,04:50,0.577,0.849,0.547,1.026,0.732,0.347,0.597,0.562,��,2.3,��
2022/05/20,05:00,0.577,0.850,0.547,1.024,0.732,0.348,0.596,0.563,���쐼,3.4,��
2022/05/20,05:10,0.577,0.849,0.548,1.027,0.732,0.346,0.597,0.562,���쐼,4.4,��
2022/05/20,05:20,0.577,0.850,0.548,1.025,0.732,0.349,0.597,0.564,���쐼,4.1,��
2022/05/20,05:30,0.579,0.849,0.549,1.024,0.730,0.347,0.596,0.564,���쐼,4.0,��
2022/05/20,05:40,0.580,0.849,0.548,1.022,0.730,0.347,0.596,0.563,�쐼,4.2,��
2022/05/20,05:50,0.578,0.850,0.550,1.025,0.734,0.347,0.597,0.564,�쐼,3.3,��
2022/05/20,06:00,0.580,0.852,0.550,1.027,0.733,0.348,0.599,0.564,��쐼,5.0,��
2022/05/20,06:10,0.579,0.852,0.550,1.024,0.731,0.347,0.597,0.563,��쐼,3.6,��
2022/05/20,06:20,0.578,0.851,0.551,1.025,0.732,0.348,0.599,0.564,��쐼,3.9,��
2022/05/20,06:30,0.578,0.849,0.550,1.027,0.732,0.347,0.599,0.563,��쐼,5.2,��
2022/05/20,06:40,0.579,0.849,0.549,1.024,0.733,0.348,0.599,0.564,��쐼,3.8,��
2022/05/20,06:50,0.576,0.848,0.549,1.026,0.730,0.348,0.598,0.563,��,3.7,��
2022/05/20,07:00,0.578,0.852,0.548,1.026,0.734,0.347,0.599,0.564,��,4.2,��
2022/05/20,07:10,0.579,0.849,0.548,1.026,0.734,0.348,0.599,0.564,��,4.4,��
2022/05/20,07:20,0.578,0.848,0.548,1.026,0.731,0.347,0.598,0.563,��쐼,4.5,��
2022/05/20,07:30,0.580,0.848,0.549,1.027,0.731,0.346,0.600,0.562,��쐼,4.5,��
2022/05/20,07:40,0.578,0.849,0.549,1.028,0.731,0.347,0.596,0.562,��,4.2,��
2022/05/20,07:50,0.580,0.849,0.547,1.027,0.732,0.346,0.597,0.562,��,4.0,��
2022/05/20,08:00,0.579,0.850,0.549,1.027,0.730,0.345,0.598,0.562,��,3.4,��
2022/05/20,08:10,0.577,0.846,0.549,1.027,0.731,0.346,0.598,0.560,�쐼,2.0,��
2022/05/20,08:20,0.577,0.849,0.548,1.028,0.732,0.346,0.597,0.562,��,2.3,��
2022/05/20,08:30,0.577,0.848,0.548,1.026,0.732,0.346,0.597,0.561,��쓌,4.0,��
2022/05/20,08:40,0.579,0.847,0.548,1.028,0.731,0.346,0.597,0.561,��쓌,3.8,��
2022/05/20,08:50,0.580,0.847,0.548,1.027,0.732,0.347,0.597,0.561,��쓌,3.8,��
2022/05/20,09:00,0.577,0.846,0.547,1.026,0.732,0.347,0.597,0.562,��쓌,3.0,��
2022/05/20,09:10,0.578,0.847,0.550,1.029,0.733,0.347,0.598,0.561,��쓌,3.6,��
2022/05/20,09:20,0.577,0.847,0.548,1.026,0.734,0.348,0.597,0.562,��쓌,4.4,��
2022/05/20,09:30,0.579,0.846,0.547,1.027,0.733,0.346,0.598,0.562,��쓌,4.7,��
2022/05/20,09:40,0.579,0.850,0.548,1.029,0.731,0.348,0.598,0.562,��쓌,4.6,��
2022/05/20,09:50,0.580,0.847,0.548,1.028,0.731,0.348,0.598,0.562,��쓌,5.2,��
2022/05/20,10:00,0.579,0.850,0.549,1.028,0.731,0.347,0.598,0.562,��쓌,6.1,��
2022/05/20,10:10,0.579,0.845,0.548,1.029,0.730,0.347,0.601,0.561,��쓌,6.5,��
2022/05/20,10:20,0.579,0.847,0.549,1.029,0.731,0.348,0.597,0.562,��,6.7,��
2022/05/20,10:30,0.579,0.850,0.549,1.029,0.733,0.347,0.598,0.562,��,6.9,��
2022/05/20,10:40,0.581,0.850,0.549,1.028,-,0.347,0.597,0.563,��,7.1,��
2022/05/20,10:50,0.581,0.848,0.549,1.029,-,0.347,0.599,0.561,��,8.3,��
2022/05/20,11:00,0.580,0.851,0.550,1.027,-,0.348,0.599,0.562,��쓌,8.8,��
2022/05/20,11:10,0.579,0.848,0.549,1.028,-,0.348,0.599,0.561,��,8.4,��
2022/05/20,11:20,0.581,0.849,0.549,1.027,-,0.349,0.599,0.562,��쓌,10.6,��
2022/05/20,11:30,0.580,0.850,0.548,1.026,-,0.347,0.599,0.561,��,8.8,��
2022/05/20,11:40,0.582,0.852,0.550,1.030,-,0.347,0.597,0.561,��쓌,9.9,��
2022/05/20,11:50,0.580,0.852,0.548,1.027,-,0.349,0.600,0.561,��,10.2,��
2022/05/20,12:00,0.581,0.853,0.550,1.027,-,0.348,0.597,0.563,��쓌,11.8,��
2022/05/20,12:10,0.580,0.853,0.547,1.028,-,0.347,0.598,0.560,��쓌,10.8,��
2022/05/20,12:20,0.580,0.852,0.548,1.027,-,0.347,0.598,0.562,��쓌,10.2,��
2022/05/20,12:30,0.580,0.854,0.549,1.027,-,0.348,0.597,0.563,��쓌,9.8,��
2022/05/20,12:40,0.582,0.854,0.549,1.028,-,0.346,0.598,0.562,��,9.9,��
2022/05/20,12:50,0.581,0.851,0.549,1.028,-,0.347,0.598,0.562,��쓌,9.0,��
2022/05/20,13:00,0.579,0.855,0.549,1.028,-,0.347,0.597,0.562,��,8.3,��
2022/05/20,13:10,0.582,0.854,0.549,1.027,-,0.348,0.598,0.561,��쓌,9.0,��
2022/05/20,13:20,0.581,0.854,0.550,1.029,-,0.347,0.596,0.562,��,9.4,��
2022/05/20,13:30,0.581,0.851,0.552,1.028,-,0.348,0.597,0.562,��,10.3,��
2022/05/20,13:40,0.581,0.852,0.549,1.026,-,0.347,0.597,0.562,��,11.3,��
2022/05/20,13:50,0.580,0.852,0.550,1.028,-,0.348,0.597,0.562,��,9.3,��
2022/05/20,14:00,0.582,0.851,0.549,1.028,0.734,0.348,0.597,0.563,��,8.1,��
2022/05/20,14:10,0.582,0.853,0.551,1.029,0.736,0.347,0.599,0.563,��,6.7,��
2022/05/20,14:20,0.580,0.852,0.550,1.027,0.736,0.348,0.596,0.562,��,6.0,��
2022/05/20,14:30,0.581,0.852,0.549,1.030,0.737,0.348,0.596,0.563,��,6.9,��
2022/05/20,14:40,0.581,0.855,0.550,1.030,0.737,0.348,0.597,0.563,��,6.4,��
2022/05/20,14:50,0.581,0.854,0.549,1.030,0.736,0.348,0.598,0.563,��,6.1,��
2022/05/20,15:00,0.581,0.850,0.549,1.026,0.736,0.348,0.596,0.562,��,5.8,��
2022/05/20,15:10,0.581,0.850,0.548,1.030,0.736,0.348,0.597,0.563,��,6.8,��
2022/05/20,15:20,0.582,0.850,0.548,1.030,0.737,0.350,0.598,0.563,��,6.8,��
2022/05/20,15:30,0.581,0.852,0.548,1.028,0.737,0.349,0.598,0.561,��,7.1,��
2022/05/20,15:40,0.580,0.854,0.550,1.030,0.735,0.347,0.597,0.562,��,6.8,��
2022/05/20,15:50,0.582,0.856,0.551,1.031,0.737,0.348,0.597,0.563,��,6.5,��
2022/05/20,16:00,0.578,0.853,0.547,1.029,0.736,0.349,0.597,0.563,��,7.7,��
2022/05/20,16:10,0.580,0.853,0.549,1.030,0.735,0.347,0.596,0.563,��,8.5,��
2022/05/20,16:20,0.580,0.853,0.548,1.030,0.737,0.347,0.595,0.563,��,9.2,��
2022/05/20,16:30,0.579,0.853,0.549,1.030,0.736,0.349,0.597,0.562,��,9.2,��
2022/05/20,16:40,0.578,0.853,0.549,1.032,0.736,0.346,0.598,0.562,��,8.5,��
2022/05/20,16:50,0.578,0.852,0.550,1.033,0.737,0.348,0.596,0.563,��,8.7,��
2022/05/20,17:00,0.578,0.855,0.550,1.031,0.736,0.348,0.596,0.562,��,8.3,��
2022/05/20,17:10,0.577,0.854,0.551,1.034,0.736,0.347,0.598,0.562,��,7.6,��
2022/05/20,17:20,0.580,0.854,0.550,1.033,0.737,0.347,0.599,0.563,��,6.8,��
2022/05/20,17:30,0.578,0.855,0.551,1.034,0.737,0.348,0.598,0.563,��,6.6,��
2022/05/20,17:40,0.578,0.855,0.552,1.033,0.737,0.348,0.598,0.561,��,6.0,��
2022/05/20,17:50,0.577,0.853,0.551,1.032,0.735,0.348,0.597,0.562,��,5.2,��
2022/05/20,18:00,0.577,0.853,0.550,1.033,0.734,0.347,0.599,0.563,��,5.8,��
2022/05/20,18:10,0.579,0.851,0.549,1.034,0.735,0.346,0.597,0.563,��,6.1,��
2022/05/20,18:20,0.578,0.855,0.550,1.034,0.738,0.347,0.599,0.563,��,6.7,��
2022/05/20,18:30,0.579,0.856,0.549,1.034,0.735,0.348,0.600,0.564,��,8.0,��
2022/05/20,18:40,0.579,0.856,0.550,1.034,0.735,0.347,0.599,0.565,��쐼,6.8,��
2022/05/20,18:50,0.579,0.855,0.549,1.034,0.736,0.349,0.600,0.565,��쐼,5.4,��
2022/05/20,19:00,0.580,0.855,0.551,1.034,0.736,0.349,0.599,0.565,��,4.6,��
2022/05/20,19:10,0.581,0.857,0.552,1.035,0.738,0.349,0.600,0.565,��,4.9,��
2022/05/20,19:20,0.578,0.856,0.552,1.036,0.739,0.349,0.599,0.565,��,5.3,��
2022/05/20,19:30,0.580,0.855,0.554,1.032,0.739,0.349,0.600,0.566,��,6.1,��
2022/05/20,19:40,0.581,0.859,0.552,1.032,0.739,0.349,0.600,0.564,��,5.0,��
2022/05/20,19:50,0.579,0.860,0.550,1.032,0.739,0.349,0.600,0.565,��쐼,4.5,��
2022/05/20,20:00,0.580,0.859,0.550,1.034,0.739,0.348,0.601,0.565,��쐼,5.3,��
2022/05/20,20:10,0.581,0.859,0.550,1.035,0.738,0.350,0.601,0.564,�쐼,6.0,��
2022/05/20,20:20,0.581,0.859,0.550,1.032,0.738,0.348,0.601,0.565,�쐼,6.5,��
2022/05/20,20:30,0.581,0.859,0.550,1.032,0.736,0.349,0.600,0.567,�쐼,5.6,��
2022/05/20,20:40,0.580,0.859,0.551,1.034,0.739,0.350,0.599,0.563,�쐼,4.7,��
2022/05/20,20:50,0.580,0.860,0.552,1.032,0.740,0.350,0.600,0.565,��쐼,5.8,�L
2022/05/20,21:00,0.582,0.858,0.551,1.034,0.740,0.349,0.600,0.565,��쐼,7.8,�L
2022/05/20,21:10,0.582,0.857,0.553,1.035,0.742,0.349,0.600,0.566,�쐼,6.7,�L
2022/05/20,21:20,0.582,0.858,0.552,1.034,0.742,0.350,0.601,0.565,�쐼,6.9,�L
2022/05/20,21:30,0.582,0.859,0.551,1.033,0.741,0.349,0.600,0.565,�쐼,8.6,��
2022/05/20,21:40,0.582,0.859,0.552,1.032,0.740,0.348,0.600,0.564,���쐼,8.1,�L
2022/05/20,21:50,0.581,0.858,0.552,1.033,0.738,0.349,0.600,0.565,�쐼,6.0,�L
2022/05/20,22:00,0.582,0.858,0.552,1.037,0.740,0.350,0.601,0.566,���쐼,7.3,�L
2022/05/20,22:10,0.581,0.859,0.552,1.038,0.741,0.351,0.600,0.568,���쐼,6.0,�L
2022/05/20,22:20,0.580,0.858,0.554,1.037,0.741,0.352,0.601,0.566,���쐼,6.4,�L
2022/05/20,22:30,0.581,0.861,0.555,1.034,0.743,0.351,0.602,0.569,�쐼,6.1,�L
2022/05/20,22:40,0.581,0.859,0.554,1.036,0.741,0.352,0.602,0.565,�쐼,6.8,��
2022/05/20,22:50,0.580,0.860,0.555,1.037,0.740,0.351,0.601,0.566,��쐼,6.1,��
2022/05/20,23:00,0.580,0.858,0.552,1.036,0.742,0.352,0.602,0.567,�쐼,6.7,��
2022/05/20,23:10,0.582,0.860,0.553,1.035,0.742,0.353,0.600,0.566,�쐼,5.5,��
2022/05/20,23:20,0.581,0.857,0.552,1.038,0.741,0.350,0.602,0.565,�쐼,4.9,��
2022/05/20,23:30,0.580,0.857,0.553,1.035,0.739,0.350,0.601,0.567,���쐼,3.7,��
2022/05/20,23:40,0.582,0.860,0.551,1.034,0.740,0.351,0.601,0.564,��,3.6,��
2022/05/20,23:50,0.582,0.860,0.553,1.036,0.741,0.349,0.600,0.564,���k��,3.5,��
